NEE-01 PEGASO

Last updated on Sun Dec 14 2025 00:03:49 GMT+0000 (Coordinated Universal Time)

1 39151U 13018B 25347.29450319 .00005278 00000+0 52092-3 0 9998 2 39151 98.0954 120.7903 0013790 58.8044 301.4524 14.92357340682965
UTC large
Height (km)
Speed (km/s)
/
Latitude / Longitude
Inclination (degrees)
Orbital Period (minutes)
Azimuth
Elevation
Range (km)
Doppler Factor

Next 0 passes for location: London (51.5072 / 0.1276)

Sorry there are no passes over London.